sat.trackr.live / text

‹ back to catalog

STARLINK-3567

NORAD 51871 · 2022-022V

PAYLOAD ACTIVE UNKNOWN

§ Identity

Operator
Country
US
Launch date
2022-03-03
Launch site
AFETR
Launch vehicle
Mass (kg)
RCS (m²)

Purposes: comms

External: N2YO · Heavens-Above · Gunter

§ Orbital elements

Epoch: 2026-05-24T23:44:27.883104Z

Period
95.44 min
Inclination
53.2146°
Eccentricity
0.0001640
Mean motion
15.08836569 rev/d
Perigee alt
538.6 km
Apogee alt
540.9 km
Semi-major
6,917.9 km
B*
5.5204e-5
RAAN
26.5971°
Arg perigee
58.4334°
Mean anomaly
301.6818°
Rev number
23,474

§ Raw data

STARLINK-35671 51871U 22022V   26144.98921161  .00000591  00000+0  55204-4 0  99982 51871  53.2146  26.5971 0001640  58.4334 301.6818 15.08836569234741

JSON: /api/v1/satellites/51871 · /tle

For live sub-satellite position, see the globe view (requires WebGL).

§ Visibility from observer

Set your observer location to see the next 7 days of passes ≥ 10°. The values pass through the URL so the page stays shareable.

No JS? Fill the form by hand. The geolocation button needs JavaScript.